Find Starlink 33902

NORAD ID: 65920 Int'l Des: 2025-225 Owner: SPXS Country: US Constellation: starlink operational
LEOCIRCULAR

当前视图

正在加载3D地球...

About Starlink 33902

Starlink 33902 (NORAD 65920) is a starlink constellation satellite (v2 mini) launched Oct 8, 2025 by SPXS of US. It operates in LEO, CIRCULAR orbit with a mass of 575.00 kg.

即将过境

Passes for default location (London). Set your location on the main map for personalized predictions.

高度历史

Loading altitude history...

两行轨道根数

1 65920U 25225L 26265.80620872 .00011852 00000-0 36146-3 0 9992
2 65920 53.1608 326.8260 0001486 65.4833 294.6324 15.34392279 54635
Epoch: Sep 22, 2026 • Age: 8 hours

当前状态

高度 464.7 km
远地点 / 近地点 N/A
速度 7.64 km/s
星下点 33.66°N, 57.08°E
发射日期 Oct 8, 2025
运行时间 0.9 years
类型 internet

技术详情

分类 Payload
质量 575.00 kg
干质量 530.00 kg
长度 0.30 m
跨度 29.00 m
形状 ? Box + pan
制造商 SPXS
平台类型 Starlink V2MO
阶段状态 In Orbit
所有者/国家 SPXS/US

Most Searched